Location: C�mpuri de-Sus
(45.9500°N, 22.5500°E)
Time: 07:40:34
(UTC+00:00)

Cosmos 839 Rocket - Pass Details

Date: 05 December 2023
Orbit: 960 x 2092 km, 65.9° (Epoch: 04 March)

Event Time Altitude Azimuth Distance (km) Brightness Sun altitude
Exits shadow 02:51:46 52° 260° (W) 2,480 5.6 -31.0°
Maximum altitude 02:54:54 65° 312° (NW) 2,250 5.5 -30.4°
Drops below altitude 10° 03:06:38 10° 34° (NE) 4,360 7.7 -28.4°
Sets 03:09:52 0° 38° (NE) 5,251 8.2 -27.9°
